Regional Weather Roundup
Issued by NWS

Home | Current Version | Previous Version | Text Only | Print | Product List | Glossary On
Versions: 1 2 3 4 5 6 7 8 9 10 11 12 13 14 15 16 17 18 19 20 21 22 23 24 25 26 27 28 29 30 31 32 33 34 35 36 37 38 39 40 41 42 43 44 45 46 47 48 49 50
000
ASUS43 KMPX 261710
RWRMN
WEATHER ROUNDUP FOR MINNESOTA
NATIONAL WEATHER SERVICE TWIN CITIES/CHANHASSEN MN
1200 PM CDT THU MAY 26 2016


NOTE: "FAIR" INDICATES FEW OR NO CLOUDS BELOW 12,000 FEET WITH NO
SIGNIFICANT WEATHER AND/OR OBSTRUCTIONS TO VISIBILITY. N/A MEANS
CURRENT SKY AND/OR WEATHER CONDITIONS ARE NOT AVAILABLE.

MNZ060>063-068>070-261800-
   Twin Cities Metro

CITY           SKY/WX    TMP DP  RH WIND       PRES   REMARKS
TWIN CITIES    SUNNY     76  56  49 SW9       29.80S
ST PAUL        SUNNY     74  59  59 W10       29.80S
CRYSTAL        SUNNY     75  56  51 VRB7      29.79R
BLAINE         SUNNY     77  57  50 SW7       29.79S
EDEN PRAIRIE   SUNNY     75  56  51 W12       29.80S
SOUTH ST PAUL  SUNNY     74  57  54 SW10      29.80S
LAKE ELMO      FAIR      73  61  64 SW10      29.81S
$$
MNZ001>005-007-008-013>017-022>024-027-028-261800-
   Northwest Minnesota

CITY           SKY/WX    TMP DP  RH WIND       PRES   REMARKS
BEMIDJI        PTSUNNY   67  55  66 SW5       29.75F
HALLOCK        PTSUNNY   64  57  77 SW13      29.69S
ROSEAU         MOSUNNY   64  57  77 SW14G20   29.70S
WARROAD        CLOUDY    64  57  77 W8G16     29.71S
THIEF RVR FALL CLOUDY    64  54  68 SW14      29.75S
CROOKSTON      CLOUDY    64  57  77 W9        29.75S
FOSSTON        CLOUDY    63  55  77 W6        29.77S
DETROIT LAKES  CLOUDY    63  55  77 SW9       29.81R
MOORHEAD       PTSUNNY   63  57  82 W8        29.79S
PARK RAPIDS    MOSUNNY   70  53  54 SW10      29.77R
MAHNOMEN       CLOUDY    64  57  78 W13       29.77S
$$
MNZ006-009>011-018-025>026-261800-
   North Central Minnesota

CITY           SKY/WX    TMP DP  RH WIND       PRES   REMARKS
BAUDETTE       PTSUNNY   68  55  63 S13       29.71S
FLAG ISLAND    CLOUDY    59  55  88 S9        29.69F
INTL FALLS     CLOUDY    64  57  78 VRB6      29.74F
WASKISH        SUNNY     66  57  72 W7        29.75R
BIG FORK       CLOUDY    66  55  68 CALM      29.76F
LONGVILLE      SUNNY     70  55  60 SW5       29.76F
GRAND RAPIDS   CLOUDY    61  56  83 SW5       29.79S
CRANE LAKE     CLOUDY    59  55  88 SW5       29.78S
ORR            CLOUDY    59  52  77 S5        29.75R
COOK           CLOUDY    61  55  82 SW6       29.78S
WALKER         FAIR      69  55  59 W12       29.75F
$$
MNZ012-019>021-037-261800-
   Northeast Minnesota

CITY           SKY/WX    TMP DP  RH WIND       PRES   REMARKS
DULUTH         FOG       51  50  96 E10       29.81R VSB 1/4
ELY            CLOUDY    63  55  77 S8        29.77F
HIBBING        CLOUDY    58  55  90 VRB3      29.78S
EVELETH        CLOUDY    59  54  82 SW6       29.79S
DULUTH HARBOR  CLOUDY    45  45 100 N5        29.83S FOG
TWO HARBORS    CLOUDY    55  52  88 E5        29.80R HAZE
SILVER BAY     CLOUDY    54  52  94 E6        29.79F
GRAND MARAIS     N/A     44  43  96 E6        29.83R
G MARAIS ARPRT CLOUDY    55  52  88 S3        29.83S
$$
MNZ029>031-032-039>041-046>048-054>057-064-261800-
   West Central Minnesota

CITY           SKY/WX    TMP DP  RH WIND       PRES   REMARKS
FERGUS FALLS   MOSUNNY   66  55  68 W16       29.77S
WHEATON        SUNNY     73  50  43 W16       29.83R
MORRIS         SUNNY     73  48  40 W16G23    29.81R
ALEXANDRIA     SUNNY     71  51  49 W12G21    29.82S
ELBOW LAKE     FAIR      69  51  53 NW16G22   29.82R
WADENA         MOSUNNY   66  54  63 SW12      29.79S
GLENWOOD       SUNNY     72  52  49 W12G20    29.83R
APPLETON       SUNNY     75  41  29 NW13G23   29.82S
BENSON         SUNNY     73  45  35 NW16      29.82S
ORTONVILLE     SUNNY     73  43  33 NW14G23   29.82R
MADISON        SUNNY     73  46  38 NW16G22   29.83S
WILLMAR        FAIR      72  54  53 NW10G20   29.83S
$$
MNZ033>034-036-042>043-049>051-058-059-261800-
   Central Minnesota

CITY           SKY/WX    TMP DP  RH WIND       PRES   REMARKS
ST CLOUD       SUNNY     72  56  57 SW13      29.80S
SAUK CENTRE    FAIR      68  56  64 W13G20    29.82R
PAYNESVILLE    SUNNY     71  54  56 W9G18     29.82S
AITKIN         SUNNY     73  55  53 S9        29.75F
PINE RIVER     MOSUNNY   70  57  64 SW9       29.80S
BRAINERD       SUNNY     72  54  53 W10       29.77S
STAPLES        PTSUNNY   72  54  53 SW10G18   29.78S
LONG PRAIRIE   FAIR      68  54  60 SW13      29.81S
LITTLE FALLS   MOSUNNY   70  54  56 W9        29.80R
LITCHFIELD     RAIN      72  57  60 W10       29.83R
BUFFALO        SUNNY     73  57  58 W5        29.81S
MAPLE LAKE     SUNNY     73  59  62 SW6       29.81F
HUTCHINSON     SUNNY     72  59  64 W12       29.84R
$$
MNZ037-044-045-052-053-261800-
   East Central Minnesota

CITY           SKY/WX    TMP DP  RH WIND       PRES   REMARKS
PRINCETON      SUNNY     75  59  57 SW8       29.79S
MORA           MOSUNNY   70  57  64 SW10      29.79F
CAMBRIDGE      SUNNY     75  61  60 SW5       29.77S
RUSH CITY      SUNNY     73  58  59 SW8       29.79S
MOOSE LAKE     CLOUDY    59  54  82 CALM      29.79S
HINCKLEY       PTSUNNY   72  63  73 SW7G21    29.78F
CLOQUET        CLOUDY    54  52  94 E5        29.80S FOG
MCGREGOR       PTSUNNY   68  59  73 SW5       29.78S
$$
MNZ071>073-080-081-089-090-097-098-261800-
   Southwest Minnesota

CITY           SKY/WX    TMP DP  RH WIND       PRES   REMARKS
MONTEVIDEO     SUNNY     75  48  38 NW13G18   29.85R
GRANITE FALLS  SUNNY     77  48  36 NW10G23   29.85R
CANBY          SUNNY     76  52  43 NW12G17   29.85S
MARSHALL       SUNNY     74  48  39 NW8       29.86R
REDWOOD FALLS  SUNNY     76  48  37 NW13G18   29.83S
OLIVIA         SUNNY     73  50  43 NW13G18   29.83R
PIPESTONE      SUNNY     72  50  46 W9        29.90R
WINDOM         SUNNY     73  48  40 CALM      29.88R
WORTHINGTON    SUNNY     72  48  42 NW7       29.90R
JACKSON        SUNNY     72  46  40 W6        29.89R
TRACY          SUNNY     76  46  34 NW9G16    29.87R
SLAYTON        SUNNY     73  45  37 NW6       29.89S
$$
MNZ065>067-074>077-082>085-091>093-261800-
   South Central Minnesota

CITY           SKY/WX    TMP DP  RH WIND       PRES   REMARKS
MANKATO        SUNNY     72  54  53 W10       29.85R
NEW ULM        SUNNY     72  54  53 W9        29.84R
ST JAMES       SUNNY     70  46  43 W8        29.87R
FAIRMONT       SUNNY     73  48  40 W7        29.87S
GLENCOE        SUNNY     72  61  68 W8        29.82S
FARIBAULT      SUNNY     73  61  64 SW8       29.83F
OWATONNA       SUNNY     73  61  64 SW10      29.85R
WASECA         SUNNY     72  59  64 SW10      29.87R
ALBERT LEA     SUNNY     73  61  64 SW7       29.87R
$$
MNZ078>079-086>088-094>096-261800-
   Southeast Minnesota

CITY           SKY/WX    TMP DP  RH WIND       PRES   REMARKS
ROCHESTER      SUNNY     72  64  76 SW12      29.87R
RED WING       SUNNY     75  57  53 W5        29.80S
STANTON        SUNNY     75  61  60 SW9       29.81S
DODGE CENTER   SUNNY     73  61  64 SW14      29.86R
WINONA         HAZE      73  59  60 W7        29.85S VSB 1
AUSTIN         SUNNY     72  61  68 SW14      29.87R
PRESTON        SUNNY     73  59  61 SW15      29.88R
$$
ABBREVIATIONS USED IN REMARKS
   TC - TEMPERATURES IN CELSIUS
  WCI - WIND CHILL INDEX
   HX - HEAT INDEX
  VSB - VISIBILITY
$$




USA.gov is the U.S. government's official web portal to all federal, state and local government web resources and services.